Other Surface Observations
Issued by NWS Tucson, AZ

Home | Current Version | Previous Version | Text Only | Print | Product List | Glossary On
Versions: 1 2 3 4 5 6 7 8 9 10 11 12 13 14 15 16 17 18 19 20 21 22 23 24 25 26 27 28 29 30 31 32 33 34 35 36 37 38 39 40 41 42 43 44 45 46 47 48 49 50
000
SXUS55 KTWC 012016
OSOTWC

WEATHER ROUNDUP FOR SOUTHEAST ARIZONA
NATIONAL WEATHER SERVICE TUCSON AZ
115 PM MST SAT AUG 01 2015

AZZ504>506-514-012115-
LOCATION       SKY/WX    TMP DP  RH WIND       PRES   REMARKS
TUCSON         MOSUNNY   96  60  30 W8        29.99F
DAVIS-MONTHAN  SUNNY     95  59  30 S6        29.98F
CHILDRENS PARK N/A       93  59  32 S4                PIMA CO DEQ
ALVERNON/22ND  N/A      N/A N/A N/A N/A               PIMA CO DEQ
CHERRY/GLENN   N/A      N/A N/A N/A N/A               PIMA CO DEQ
TANGERINE      N/A       93 N/A N/A S6                PIMA CO DEQ
CONTL RANCH    N/A       96  61  32 SW2               PIMA CO DEQ
GRANT/1ST      N/A       95  59  30 S3                PIMA CO DEQ
CRAYCROFT/22ND N/A      N/A N/A N/A N/A               PIMA CO DEQ
GOLFLINKS/KOLB N/A      N/A N/A N/A N/A               PIMA CO DEQ
AJO/12TH       N/A       93  60  34 N0                PIMA CO DEQ
SAGUARO EAST   N/A      N/A N/A N/A N/A               PIMA CO DEQ
FAIRGROUNDS    N/A       92 N/A N/A W9                PIMA CO DEQ
SAGUARO        N/A       97  62  32 W4                *SABINO CYN
SAN CARLOS     N/A       94  61  34 S6G13             *SAN CARLOS
GREEN VALLEY   N/A       91  60  36 SW6               PIMA CO DEQ
HORSE CAMP CYN N/A       87  60  40 W5G13             *ARAVAIPA CYN
RINCON MTNS    N/A       75  57  53 S3                *NR MANNING CAMP
$$

AZZ509>511-012115-
LOCATION       SKY/WX    TMP DP  RH WIND       PRES   REMARKS
SAFFORD        SUNNY     96  58  27 N6        30.00F
STRAY HORSE    N/A       68  52  57 W4                *
TRAIL CABIN    N/A       81  54  40 W4G12             *N OF GRANVILLE
BLACK HILLS    N/A       96  58  28 SW5G12            *N OF FT THOMAS
DRY LAKE       N/A       76  57  52 S9G14             *NATANES MTNS
NOON CREEK     N/A       88  60  39 NE4G17            *PINALENO MTNS
COLUMBINE      N/A       65  55  69 SE6G14            *PINALENO MTNS
GUTHRIE        N/A       82  56  41 SW6G14            *SW OF GUTHRIE
$$

AZZ502-503-513-012115-
LOCATION       SKY/WX    TMP DP  RH WIND       PRES   REMARKS
NOGALES        MOSUNNY   88  62  41 S7        30.09F
SELLS          N/A       97  63  33 W6G11             *
SASABE         N/A       89  64  44 S6G11             *ALTAR VLY
HOPKINS        N/A       80  58  47 S3G10             *SANTA RITA MTNS
CARR CYN       N/A       83  63  51 NW4               *W OF HEREFORD
$$

AZZ507-508-512-012115-
LOCATION       SKY/WX    TMP DP  RH WIND       PRES   REMARKS
SIERRA VISTA   TSTM      70  63  78 W18G25    30.17F
DOUGLAS          N/A    N/A N/A N/A MISG      30.10F
EMPIRE MTNS    N/A       87  60  40 SE6G13            *LAS CIENEGAS NCA
MULESHOE RANCH N/A       88  59  38 S4G11             *PRESERVE
HEADQUARTERS   N/A       65  59  80 E6G17             *CHIRICAHUA MTNS
$$

.............................NOTES.............................
THIS IS AN AUTOMATED COLLECTIVE WITH MINIMAL QUALITY CONTROL.
PIMA CO DEQ SITES HAVE NONSTANDARD WIND SENSOR HEIGHTS.
PIMA CO DEQ SITES DO NOT REPORT WIND GUSTS.
* INDICATES WIND SENSORS LOCATED AT 20 FEET INSTEAD OF 33 FEET.
..............................KEY..............................
SKY/WX - SKY CONDITION/WEATHER
TMP    - TEMPERATURE IN FAHRENHEIT
DP     - DEWPOINT IN FAHRENHEIT
RH     - RELATIVE HUMIDITY IN PERCENT
WIND   - DIRECTION AND SPEED IN MILES PER HOUR (MPH)
VRB    - VARIABLE WIND DIRECTION
PRES   - MEAN SEA LEVEL PRESSURE IN INCHES OF MERCURY
         F - FALLING PRESSURE   R - RISING PRESSURE
         S - STEADY PRESSURE
VSB    - VISIBILITY IN MILES
HX     - HEAT INDEX IN FAHRENHEIT
WCI    - WIND CHILL INDEX IN FAHRENHEIT
N/A    - NOT AVAILABLE
AFB    - AIR FORCE BASE
         DAVIS-MONTHAN IS DAVIS-MONTHAN AIR FORCE BASE
CYN    - CANYON
MTNS   - MOUNTAINS
NCA    - NATIONAL CONSERVATION AREA
NR     - NEAR
VLY    - VALLEY
CONTL  - CONTINENTAL
PIMA CO DEQ - PIMA COUNTY DEPT OF ENVIRONMENTAL QUALITY



USA.gov is the U.S. government's official web portal to all federal, state and local government web resources and services.